Total_Precipitation_Accumulation
0.18 0.23 0.30 0.32 0.27 0.26 0.27 0.31 0.46 0.44 0.57 0.82 0.91 0.83 0.86 0.86 0.66 0.60 0.69 0.66 0.60 0.69 0.85 0.90 0.89 0.88 0.85 0.89 0.94 1.06 1.29 1.41 1.41 1.36 1.28 1.22 1.13 1.09 1.06 1.10 1.11 1.17 1.29 1.38
0.19 0.26 0.31 0.32 0.28 0.23 0.20 0.20 0.27 0.34 0.54 0.64 0.61 0.68 0.73 0.69 0.65 0.67 0.78 0.74 0.67 0.66 0.70 0.83 0.88 0.92 0.95 1.01 1.08 1.12 1.15 1.20 1.30 1.37 1.38 1.32 1.15 1.09 1.16 1.19 1.18 1.17 1.18 1.27
0.30 0.30 0.36 0.41 0.32 0.26 0.23 0.20 0.26 0.45 0.66 0.65 0.62 0.70 0.64 0.56 0.55 0.68 0.76 0.69 0.64 0.66 0.69 0.75 0.78 0.84 1.01 1.02 0.97 0.98 1.07 1.14 1.24 1.30 1.29 1.23 1.10 1.11 1.14 1.14 1.17 1.21 1.20 1.21
0.40 0.50 0.64 0.43 0.26 0.25 0.28 0.25 0.23 0.34 0.48 0.55 0.53 0.56 0.58 0.52 0.50 0.51 0.55 0.57 0.58 0.63 0.70 0.72 0.68 0.65 0.70 0.79 0.84 0.86 0.94 1.05 1.14 1.20 1.27 1.32 1.27 1.19 1.23 1.24 1.20 1.23 1.23 1.20
0.53 0.67 0.56 0.37 0.33 0.35 0.39 0.42 0.34 0.37 0.44 0.54 0.57 0.58 0.67 0.57 0.52 0.49 0.45 0.47 0.56 0.68 0.68 0.66 0.65 0.62 0.68 0.80 0.89 0.96 0.99 1.08 1.11 1.20 1.35 1.41 1.32 1.29 1.33 1.30 1.22 1.21 1.20 1.15
0.63 0.80 0.75 0.57 0.42 0.37 0.47 0.83 0.58 0.47 0.47 0.57 0.63 0.72 0.81 0.64 0.58 0.53 0.49 0.48 0.49 0.52 0.51 0.55 0.66 0.75 0.84 0.98 1.12 1.15 1.12 1.15 1.23 1.29 1.40 1.48 1.51 1.51 1.46 1.43 1.35 1.31 1.25 1.20
0.72 0.88 0.76 0.56 0.45 0.52 0.89 1.10 0.75 0.63 0.59 0.64 0.74 0.73 0.70 0.64 0.55 0.53 0.55 0.54 0.54 0.58 0.60 0.64 0.69 0.86 1.06 1.13 1.18 1.21 1.21 1.22 1.32 1.41 1.55 1.71 1.85 1.79 1.73 1.68 1.65 1.60 1.51 1.42
0.96 1.13 1.12 0.68 0.57 0.85 1.06 0.86 0.79 0.78 0.76 0.72 0.64 0.58 0.58 0.62 0.58 0.53 0.54 0.61 0.66 0.75 0.78 0.71 0.72 0.86 1.03 1.12 1.17 1.28 1.31 1.37 1.43 1.55 1.61 1.74 2.07 2.05 2.06 2.04 1.91 1.85 1.74 1.64
1.25 1.25 1.02 0.91 0.96 0.99 1.03 0.92 0.86 0.72 0.64 0.61 0.62 0.61 0.65 0.73 0.72 0.62 0.57 0.64 0.69 0.78 0.84 0.87 0.94 1.03 1.19 1.24 1.31 1.39 1.51 1.62 1.68 1.74 1.87 1.96 2.08 2.10 2.13 2.11 2.00 1.91 1.81 1.65
1.42 1.31 1.18 1.05 0.97 1.01 1.16 1.05 0.86 0.71 0.66 0.66 0.66 0.60 0.57 0.61 0.66 0.64 0.62 0.68 0.75 0.79 0.99 1.12 1.16 1.21 1.28 1.36 1.49 1.63 1.77 1.89 1.95 1.97 1.98 2.02 2.15 2.13 2.12 2.12 2.04 1.96 1.91 1.78
1.53 1.49 1.47 1.27 0.99 0.93 0.96 0.89 0.75 0.75 0.73 0.73 0.74 0.68 0.60 0.58 0.59 0.65 0.72 0.79 0.85 0.94 1.08 1.14 1.24 1.35 1.45 1.60 1.77 1.85 1.87 1.91 1.93 1.98 2.10 2.17 2.14 2.12 2.15 2.19 2.16 2.12 2.07 2.07
1.65 1.47 1.45 1.36 1.10 0.95 0.83 0.74 0.70 0.83 0.88 0.79 0.78 0.77 0.71 0.67 0.68 0.71 0.78 0.87 0.95 1.04 1.14 1.21 1.37 1.55 1.67 1.82 2.01 2.16 2.11 2.04 2.06 2.12 2.19 2.20 2.16 2.08 2.11 2.05 1.96 1.91 1.93 1.95
1.33 1.24 1.20 1.20 1.15 1.01 0.81 0.75 0.74 0.88 0.94 0.92 0.85 0.80 0.79 0.79 0.74 0.74 0.78 0.87 0.93 1.02 1.12 1.19 1.30 1.52 1.70 1.91 2.03 2.17 2.15 2.11 2.16 2.24 2.33 2.33 2.30 2.25 2.26 2.13 1.96 1.80 1.81 1.86
1.19 1.18 1.21 1.19 1.17 1.06 0.92 0.92 0.96 1.06 1.07 1.08 1.05 0.95 0.90 0.94 0.86 0.83 0.88 0.94 0.96 1.06 1.13 1.25 1.36 1.47 1.58 1.78 1.95 2.05 2.09 2.12 2.11 2.11 2.12 2.15 2.21 2.24 2.23 2.11 1.95 1.78 1.66 1.65
1.20 1.24 1.29 1.22 1.15 1.08 0.98 0.95 1.04 1.11 1.10 1.09 1.08 1.13 1.23 1.22 1.12 1.04 0.99 0.98 1.04 1.14 1.13 1.26 1.43 1.55 1.67 1.82 1.89 1.95 1.97 1.93 1.86 1.90 1.93 2.01 2.07 2.04 1.95 1.90 1.82 1.70 1.54 1.52
1.13 1.19 1.28 1.29 1.25 1.17 1.02 1.03 1.08 1.00 0.98 1.08 1.13 1.19 1.21 1.18 1.17 1.15 1.05 1.01 1.11 1.15 1.16 1.24 1.36 1.50 1.64 1.77 1.81 1.82 1.85 1.87 1.83 1.73 1.73 1.82 1.87 1.85 1.79 1.78 1.79 1.76 1.59 1.52
1.28 1.35 1.36 1.46 1.51 1.28 1.17 1.12 1.11 1.07 1.00 1.08 1.11 1.06 1.04 1.08 1.18 1.24 1.20 1.11 1.11 1.12 1.19 1.28 1.31 1.41 1.59 1.80 1.86 1.76 1.66 1.62 1.70 1.67 1.61 1.66 1.76 1.80 1.79 1.81 1.76 1.66 1.52 1.43
1.35 1.32 1.33 1.43 1.56 1.43 1.35 1.26 1.14 1.19 1.19 1.21 1.25 1.15 1.08 1.08 1.14 1.23 1.24 1.12 1.11 1.11 1.14 1.28 1.38 1.42 1.50 1.81 2.01 1.87 1.70 1.59 1.51 1.50 1.52 1.55 1.60 1.67 1.67 1.65 1.62 1.50 1.36 1.29
1.35 1.34 1.35 1.43 1.45 1.42 1.44 1.39 1.21 1.13 1.16 1.18 1.27 1.18 1.13 1.14 1.14 1.09 1.12 1.14 1.18 1.20 1.21 1.29 1.43 1.41 1.47 1.65 1.84 1.78 1.66 1.58 1.49 1.44 1.50 1.55 1.53 1.53 1.51 1.47 1.46 1.41 1.32 1.26
1.39 1.39 1.40 1.41 1.44 1.42 1.38 1.35 1.29 1.22 1.21 1.22 1.16 1.11 1.11 1.09 1.09 1.07 1.10 1.14 1.16 1.22 1.23 1.25 1.12 1.13 1.30 1.51 1.64 1.57 1.57 1.51 1.41 1.37 1.44 1.49 1.47 1.42 1.31 1.24 1.23 1.20 1.10 1.04
1.41 1.39 1.36 1.35 1.39 1.34 1.30 1.34 1.37 1.33 1.30 1.28 1.18 1.12 1.13 1.11 1.07 1.10 1.19 1.24 1.17 1.14 1.15 1.22 1.06 0.98 1.03 1.31 1.47 1.35 1.36 1.37 1.36 1.34 1.36 1.42 1.38 1.29 1.16 1.10 1.04 1.00 0.99 0.99
1.32 1.32 1.31 1.32 1.34 1.31 1.15 1.15 1.25 1.24 1.20 1.18 1.12 1.10 1.16 1.22 1.17 1.12 1.12 1.22 1.22 1.23 1.08 1.05 0.97 0.98 1.01 1.11 1.18 1.27 1.26 1.29 1.32 1.28 1.25 1.26 1.29 1.22 1.09 1.08 1.07 1.02 0.98 0.98
1.19 1.15 1.14 1.17 1.24 1.22 1.04 1.00 1.02 1.06 1.01 0.99 1.05 1.14 1.21 1.22 1.24 1.25 1.18 1.09 1.08 1.12 0.99 0.92 0.91 0.90 0.88 0.86 0.97 1.12 1.14 1.17 1.19 1.16 1.11 1.08 1.08 1.02 0.95 0.91 0.94 0.92 0.90 0.90
1.08 0.99 0.99 1.04 1.07 1.09 1.11 1.05 0.94 0.94 0.93 0.95 1.02 1.15 1.28 1.28 1.21 1.11 1.03 1.05 1.07 0.97 0.87 0.86 0.83 0.76 0.75 0.73 0.87 1.02 1.06 1.09 1.09 1.12 1.09 1.04 1.01 0.93 0.91 0.90 0.87 0.82 0.82 0.77
1.06 0.99 0.99 1.06 1.13 1.17 1.16 1.14 1.04 1.00 1.02 1.02 1.03 1.09 1.21 1.29 1.30 1.14 0.97 0.96 1.04 0.90 0.80 0.82 0.77 0.73 0.69 0.74 0.85 0.97 1.03 1.04 1.05 1.08 1.02 0.94 0.89 0.87 0.86 0.88 0.85 0.82 0.79 0.70
1.07 1.04 1.09 1.14 1.20 1.22 1.22 1.25 1.26 1.19 1.25 1.26 1.19 1.17 1.19 1.23 1.24 1.16 1.08 1.00 1.00 0.91 0.76 0.73 0.71 0.70 0.70 0.77 0.83 0.90 0.96 0.99 0.99 0.99 0.96 0.92 0.87 0.84 0.86 0.85 0.82 0.79 0.72 0.67
1.08 1.09 1.17 1.23 1.24 1.21 1.25 1.40 1.53 1.55 1.58 1.58 1.55 1.45 1.35 1.27 1.21 1.13 1.08 1.06 1.02 0.94 0.85 0.78 0.76 0.76 0.76 0.78 0.81 0.90 0.97 0.99 0.95 0.90 0.91 0.93 0.93 0.89 0.84 0.80 0.75 0.70 0.65 0.65